Location: Bessat
(45.8735°N, 1.9924°E)
Time: 09:06:19
(UTC+00:00)

Resurs 01 Rocket - Pass Details

Date: 11 May 2021
Orbit: 633 x 645 km, 97.9° (Epoch: 15 June)

Event Time Altitude Azimuth Distance (km) Brightness Sun altitude
Exits shadow 21:39:49 - 219° (SW) 2,382 4.4 -19.7°
Reaches altitude 10° 21:41:04 10° 231° (SW) 2,038 4.1 -19.8°
Maximum altitude 21:43:50 16° 269° (W) 1,667 4.1 -20.1°
Drops below altitude 10° 21:46:37 10° 308° (NW) 2,045 5.2 -20.3°
Sets 21:49:37 0° 330° (NNW) 2,959 6.7 -20.6°
